Location: Newark
(34.9500°N, 139.9667°E)
Time: 09:06:21
(UTC+00:00)

Altair - Pass Details

Date: 10 December 2019
Orbit: 1502 x 1682 km, 47.2° (Epoch: 20 January)

Event Time Altitude Azimuth Distance (km) Brightness Sun altitude
Exits shadow 17:30:45 33° 105° (ESE) 2,328 8.6 -49.6°
Drops below altitude 10° 17:35:13 10° 114° (ESE) 3,666 9.9 -48.7°
Sets 17:38:17 0° 117° (ESE) 4,661 10.6 -48.1°
